Location: Ashtead
(51.3000°N, 0.3000°W)
Time: 15:35:09
(UTC+00:00)

CZ-2C R/B - Pass Details

Date: 02 May 2025
Orbit: 781 x 868 km, 98.4° (Epoch: 12 May)

Event Time Altitude Azimuth Distance (km) Brightness Sun altitude
Exits shadow 02:49:04 13° 258° (WSW) 2,197 4.4 -13.6°
Maximum altitude 02:50:23 14° 274° (W) 2,125 4.4 -13.5°
Drops below altitude 10° 02:53:07 10° 306° (NW) 2,392 5.0 -13.2°
Sets 02:56:40 0° 331° (NNW) 3,312 6.0 -12.8°
